Regional Weather Roundup
Issued by NWS

Home | Current Version | Previous Version | Text Only | Print | Product List | Glossary Off
Versions: 1 2 3 4 5 6 7 8 9 10 11 12 13 14 15 16 17 18 19 20 21 22 23 24 25 26 27 28 29 30 31 32 33 34 35 36 37 38 39 40 41 42 43 44 45 46 47 48 49 50

000
ASUS43 KLOT 020810
RWRIL

ILLINOIS REGIONAL WEATHER ROUNDUP
NATIONAL WEATHER SERVICE CHICAGO/ROMEOVILLE IL
300 AM CDT THU OCT 02 2014

NOTE: "FAIR" INDICATES FEW OR NO CLOUDS BELOW 12,000 FEET WITH NO
SIGNIFICANT WEATHER AND/OR OBSTRUCTIONS TO VISIBILITY.

* THESE STATIONS ARE NOT UNDER NWS QUALITY CONTROL. THEY ALSO MAY NOT
  REPORT WEATHER SUCH AS PRECIPITATION OR FOG.

ILZ001-002-007-009-015-016-024-020900-
NORTHWEST ILLINOIS

CITY           SKY/WX    TMP DP  RH WIND       PRES   REMARKS
MOLINE         LGT RAIN  64  61  90 E3        29.82S FOG
SAVANNA*       CLOUDY    64  58  82 CALM      29.82F
$$

ILZ003-004-008-010-011-017-018-020900-
NORTH CENTRAL ILLINOIS

CITY           SKY/WX    TMP DP  RH WIND       PRES   REMARKS
ROCKFORD       CLOUDY    65  57  75 SE13      29.85F
FREEPORT*      CLOUDY    62  56  80 SE7       29.85F
ROCHELLE*      CLOUDY    64  58  82 SE7       29.85F
DE KALB*       CLOUDY    62  57  85 SE7       29.87S
PERU*          CLOUDY    67  62  85 S6        29.87R
$$

ILZ005-006-012>014-019>023-020900-
NORTHEAST ILLINOIS

CITY           SKY/WX    TMP DP  RH WIND       PRES   REMARKS
CHICAGO-OHARE  CLOUDY    63  56  78 SE7       29.87F
CHICAGO-MIDWAY LGT RAIN  67  57  70 S9        29.88F
AURORA         CLOUDY    63  58  83 SE7       29.86F
LANSING*       CLOUDY    62  56  82 SE6       29.89F
JOLIET*        CLOUDY    63  58  83 SE3       29.87F
WAUKEGAN       CLOUDY    62  56  80 SE8       29.87F
DUPAGE AIRPORT CLOUDY    65  58  78 SE7       29.86F
KANKAKEE*      CLOUDY    66  60  81 SE8       29.87F
WHEELING       CLOUDY    64  56  75 SE3       29.89F
MORRIS*        CLOUDY    66  63  90 SE3       29.85F
ROMEOVILLE*    CLOUDY    64  57  76 S10       29.87F
NORTHERLY ISL    N/A     64  55  72 S5          N/A
$$

LMZ740>746-020900-
SOUTHERN LAKE MICHIGAN

STATION/POSITION SKY/WX   TEMP    WIND        PRES    VSBY  WAVE
                          AIR SEA DIR/SP/G                  HT/PER
                          (F)     (DEG/KT/KT) (MB)    (MI)  (FT/S)
SOUTHERN BUOY              63 62  150/ 17/ 19 1011.9F         4/ 5
WAUKEGAN HARBOR            62     160/ 14/ 16   N/A
HARRISON CRIB              64     160/ 13/ 16   N/A
BURNHAM HARBOR             64     170/  5/  7   N/A
CALUMET HARBOR             64     150/  8/ 12 1010.8F
BURNS HARBOR               63     160/ 13/ 22   N/A
MICHIGAN CITY              63     130/ 12/ 15   N/A
MICHIGAN CITY 6N           64 64  150/ 14/ 17   N/A           2/ 2
ST. JOSEPH                 63 63  130/ 16/ 21   N/A           2/ 2
$$

ILZ025>027-034>036-040-047-049-050-058-095>099-020900-
WEST-CENTRAL ILLINOIS

CITY           SKY/WX    TMP DP  RH WIND       PRES   REMARKS
QUINCY         LGT RAIN  66  64  93 E16       29.76F
GALESBURG*     RAIN      65  64  96 S10G17    29.80F
MACOMB*        LGT RAIN  65  65  99 S10       29.83F
JACKSONVILLE*  CLOUDY    68  66  95 W9        29.90R
PITTSFIELD*    TSTM      65  62  90 N6        29.87F
$$

ILZ028>032-037-038-041>044-048-051>054-059>061-020900-
CENTRAL ILLINOIS

CITY           SKY/WX    TMP DP  RH WIND       PRES   REMARKS
PONTIAC        CLOUDY    66  64  94 CALM      29.86S
DECATUR        RAIN      66  64  93 S10       29.88F
PEORIA         CLOUDY    67  63  87 SW3       29.85R
LACON*         CLOUDY    66  62  89 CALM      29.84R
LINCOLN*       LGT RAIN  67  65  91 S8        29.80F
SPRINGFIELD    CLOUDY    68  65  90 S9        29.83R
TAYLORVILLE    TSTM      63  63 100 SE13      29.86F
$$

ILZ033-039-045-046-055>057-062-063-020900-
EAST-CENTRAL ILLINOIS

CITY           SKY/WX    TMP DP  RH WIND       PRES   REMARKS
CHAMPAIGN      LGT RAIN  66  64  93 S8        29.89F
DANVILLE*      CLOUDY    65  60  83 S5        29.87F
RANTOUL*       LGT RAIN  66  62  85 S7        29.89S
MATTOON        LGT RAIN  65  62  90 CALM      29.90S
PARIS*         CLOUDY    66  59  78 CALM      29.91S
$$

ILZ079-100>102-020900-
SOUTHWEST ILLINOIS

CITY           SKY/WX    TMP DP  RH WIND       PRES   REMARKS
ALTON          LGT RAIN  67  65  96 E5        29.86F
BELLEVILLE     CLOUDY    69  69  99 VRB1      29.85S
CAHOKIA*       CLOUDY    70  68  93 NE3       29.85F
SPARTA*        CLOUDY    73  64  71 S8        29.88R
$$

ILZ064>066-069>071-074>076-080>082-084>086-088>090-092>094-020900-
SOUTH-CENTRAL ILLINOIS

CITY           SKY/WX    TMP DP  RH WIND       PRES   REMARKS
CARBONDALE     PTCLDY    71  61  70 S9        29.87S
CAIRO*         MOCLDY    73  62  68 S5        29.88F
EFFINGHAM*     HVY RAIN  66  63  90 NE3       29.89F
MARION         PTCLDY    73  61  64 S10       29.88F
CENTRALIA*     CLOUDY    72  60  66 S9        29.87S
SALEM*         CLOUDY    71  65  82 E3        29.88S
METROPOLIS*    CLOUDY    66  63  89 CALM      29.89F
$$

ILZ067-068-072-073-078-083-087-091-020900-
SOUTHEAST ILLINOIS

CITY           SKY/WX    TMP DP  RH WIND       PRES   REMARKS
LAWRENCEVILLE  MOCLDY    65  58  78 CALM      29.91F
FLORA*         MOCLDY    69  60  74 CALM      29.89S
FAIRFIELD*     MOCLDY    72  63  73 S7        29.88F
HARRISBURG*    MOCLDY    68  63  83 CALM      29.91S
ROBINSON*      CLOUDY    65  61  86 CALM      29.92S
CARMI*         MOCLDY    64  61  88 SE6       29.90S
$$

ABBREVIATIONS USED IN REMARKS
   TC - TEMPERATURE IN CELSIUS
  WCI - WIND CHILL INDEX
   HX - HEAT INDEX
  VSB - VISIBILITY
$$



USA.gov is the U.S. government's official web portal to all federal, state and local government web resources and services.